Location: Costa Mesa
(33.6411°N, 117.9187°W)
Time: 03:06:43
(UTC+00:00)

Cosmos 2333 Rocket - Pass Details

Date: 10 September 2024
Orbit: 840 x 862 km, 70.8° (Epoch: 10 October)

Event Time Altitude Azimuth Distance (km) Brightness Sun altitude
Rises 12:19:44 0° 335° (NNW) 3,428 5.3 -15.6°
Reaches altitude 10° 12:22:13 10° 333° (NNW) 2,485 4.5 -15.1°
Maximum altitude 12:27:51 65° 252° (WSW) 926 2.1 -14.0°
Drops below altitude 10° 12:33:26 10° 171° (S) 2,457 4.6 -12.8°
Sets 12:35:53 0° 169° (SSE) 3,385 5.3 -12.3°
